Location: Dana
(41.8364°N, 106.7042°W)
Time: 15:05:46
(UTC+00:00)

Vanguard 3 - Pass Details

Date: 12 May 2026
Orbit: 507 x 3204 km, 33.3° (Epoch: 8 June)

Event Time Altitude Azimuth Distance (km) Brightness Sun altitude
Rises 20:22:59 0° 223° (SW) 6,648 12.2 61.0°
Reaches altitude 10° 20:27:26 10° 218° (SW) 5,850 12.2 60.4°
Maximum altitude 20:44:51 45° 153° (SSE) 3,896 11.4 58.0°
Drops below altitude 10° 21:00:47 10° 88° (E) 5,405 11.2 55.7°
Sets 21:04:39 0° 83° (E) 6,129 11.3 55.1°
